Regional Weather Roundup
Issued by NWS Cleveland, OH

Home | Current Version | Previous Version | Text Only | Print | Product List | Glossary Off
Versions: 1 2 3 4 5 6 7 8 9 10 11 12 13 14 15 16 17 18 19 20 21 22 23 24 25 26 27 28 29 30 31 32 33 34 35 36 37 38 39 40 41 42 43 44 45 46 47 48 49 50

000
ASUS41 KCLE 251710
RWRCLE
OHIO REGIONAL WEATHER ROUNDUP
NATIONAL WEATHER SERVICE CLEVELAND, OH
100 PM EDT SAT APR 25 2015

NOTE: "FAIR" INDICATES FEW OR NO CLOUDS BELOW 12,000 FEET WITH NO
SIGNIFICANT WEATHER AND/OR OBSTRUCTIONS TO VISIBILITY.

OHZ001>008-015>018-024>027-034-035-043-044-251800-
   NORTHWEST OHIO

CITY           SKY/WX    TMP DP  RH WIND       PRES   REMARKS
DEFIANCE       CLOUDY    48  41  76 E13G22    29.81F
FINDLAY        LGT RAIN  48  41  76 E14       29.80F
TOLEDO EXPRESS CLOUDY    45  36  70 E18G25    29.82F
TOLEDO EXEC    CLOUDY    45  35  68 E13       29.86F
LIMA           CLOUDY    48  38  68 E20       29.78F
$$

OHZ009>014-019>023-028>033-038-089-251800-
   NORTHEAST OHIO

CITY           SKY/WX    TMP DP  RH WIND       PRES   REMARKS
CLE-HOPKINS    CLOUDY    47  31  53 NE15      29.87F
CLE-LAKEFRONT  CLOUDY    45  33  63 NE20G25   29.86F
CUY CO. ARPT   CLOUDY    50  28  43 NE16      29.87F
LORAIN-ELYRIA  CLOUDY    48  33  56 E13       29.85F
ASHTABULA      PTSUNNY   45  21  38 NE7       29.90F
AKRON-CANTON   CLOUDY    48  32  53 E12       29.84F
WOOSTER        CLOUDY    46  35  65 E10       29.84F
MANSFIELD      CLOUDY    45  34  65 E12       29.80F
YOUNGSTOWN     CLOUDY    48  21  34 NE3       29.86F
$$

OHZ042-051>053-060>062-070>072-077>081-251800-
  SOUTHWEST OHIO

CITY           SKY/WX    TMP DP  RH WIND       PRES   REMARKS
CINC-COVINGTON HVY RAIN  48  46  93 E13       29.68F FOG
CINC-LUNKEN    HVY RAIN  49  47  93 NE8       29.71F FOG
HAMILTON       LGT RAIN  49  42  77 E13       29.73F
DAYTON         RAIN      41  37  86 E10       29.76F FOG
WRIGHT-PAT AFB RAIN      41  37  85 E13       29.74F
DAYTON GENERAL LGT RAIN  43  37  79 E13G21    29.72F
WILMINGTON     LGT RAIN  44  36  73 E12G24    29.74F
$$

OHZ036-037-039>041-045>050-054>059-063>069-073>076-082>088-251800-
  CENTRAL AND SOUTHEAST OHIO

CITY           SKY/WX    TMP DP  RH WIND       PRES   REMARKS
COLUMBUS       LGT RAIN  48  32  53 E15G21    29.78F
OSU AIRPORT    LGT RAIN  47  32  56 E13       29.78F
BOLTON FIELD   DRIZZLE   46  32  57 E12       29.78F
RICKENBACK AFB LGT RAIN  47  32  56 E13       29.77F
NEWARK         LGT RAIN  49  31  49 NE13      29.79F
MARION         CLOUDY    47  38  71 E13       29.81F
LANCASTER      CLOUDY    48  30  49 E10       29.78F
ZANESVILLE     CLOUDY    47  30  51 E10       29.82S
NEW PHILLY     CLOUDY    51  32  48 NE6       29.83F
$$



USA.gov is the U.S. government's official web portal to all federal, state and local government web resources and services.